Salem, Oregon, United States (97301)
Lat: 44.94N, Lon: 123.03W
Wx Zone: ORZ007
Local Info
Past Weather Observations for Thursday, December 18, 2014

NOTE: This archive is for the closest National Weather Service station to Salem. Information may differ from the station used for current weather conditions.

Click here for Long-term Archive

Time Weather Temperature Dewpoint Humidity Pressure Winds Precip Visibility
23:56
Overcast
Light Rain
48°F / 9°C 45°F / 7°C 87% 29.89 in
(1012 mb)
SSE 6.9 mph
(SSE 11 kph)
0.10 in
(2.54 mm)
10SM
22:56
Overcast
Rain
50°F / 10°C 46°F / 8°C 88% 29.89 in
(1012 mb)
SSW 10.4 mph
(SSW 17 kph)
0.09 in
(2.29 mm)
6SM
21:56
Overcast
Light Rain
52°F / 11°C 46°F / 8°C 82% 29.8 in
(1009 mb)
S 15 mph
(S 24 kph)
0.01 in
(0.25 mm)
10SM
20:56
Overcast
Light Rain
52°F / 11°C 46°F / 8°C 82% 29.77 in
(1008 mb)
S 12.7 mph
(S 20 kph)
0.03 in
(0.76 mm)
10SM
19:56
Overcast
Light Rain
55°F / 13°C 43°F / 6°C 63% 29.8 in
(1009 mb)
SW 10.4 mph
(SW 17 kph)
0.00 in
(0.00 mm)
10SM
18:56
Overcast
54°F / 12°C 45°F / 7°C 72% 29.77 in
(1008 mb)
SSE 12.7 mph
(SSE 20 kph)
- 10SM
17:56
Overcast
52°F / 11°C 46°F / 8°C 82% 29.8 in
(1009 mb)
SSE 4.6 mph
(SSE 7 kph)
0.00 in
(0.00 mm)
10SM
16:56
Overcast
Light Rain
50°F / 10°C 46°F / 8°C 88% 29.8 in
(1009 mb)
SSE 6.9 mph
(SSE 11 kph)
0.02 in
(0.51 mm)
10SM
15:56
Overcast
Light Rain
52°F / 11°C 46°F / 8°C 82% 29.83 in
(1010 mb)
S 6.9 mph
(S 11 kph)
0.02 in
(0.51 mm)
9SM
14:56
Overcast
54°F / 12°C 46°F / 8°C 77% 29.83 in
(1010 mb)
SW 8.1 mph
(SW 13 kph)
0.01 in
(0.25 mm)
10SM
13:56
Overcast
Light Rain
54°F / 12°C 46°F / 8°C 77% 29.86 in
(1011 mb)
SSE 3.5 mph
(SSE 6 kph)
0.00 in
(0.00 mm)
10SM
12:56
Overcast
52°F / 11°C 45°F / 7°C 77% 29.89 in
(1012 mb)
S 12.7 mph
(S 20 kph)
- 10SM
11:56
Overcast
52°F / 11°C 45°F / 7°C 77% 29.89 in
(1012 mb)
SSE 10.4 mph
(SSE 17 kph)
- 10SM
10:56
Overcast
50°F / 10°C 45°F / 7°C 82% 29.95 in
(1014 mb)
SE 8.1 mph
(SE 13 kph)
0.00 in
(0.00 mm)
10SM
09:56
Overcast
48°F / 9°C 45°F / 7°C 87% 29.95 in
(1014 mb)
SSE 6.9 mph
(SSE 11 kph)
- 10SM
08:56
Overcast
46°F / 8°C 45°F / 7°C 93% 29.95 in
(1014 mb)
Calm - 10SM
07:56
Overcast
45°F / 7°C 43°F / 6°C 93% 29.95 in
(1014 mb)
SE 8.1 mph
(SE 13 kph)
0.00 in
(0.00 mm)
10SM
07:39
Overcast
Light Rain
45°F / 7°C 43°F / 6°C 93% 29.95 in
(1014 mb)
Calm 0.00 in
(0.00 mm)
7SM
06:56
Overcast
45°F / 7°C 43°F / 6°C 93% 29.95 in
(1014 mb)
S 3.5 mph
(S 6 kph)
- 10SM
06:52
Overcast
45°F / 7°C 43°F / 6°C 93% 29.95 in
(1014 mb)
SSE 5.8 mph
(SSE 9 kph)
- 10SM
05:56
Overcast
45°F / 7°C 43°F / 6°C 93% 29.95 in
(1014 mb)
SSE 5.8 mph
(SSE 9 kph)
- 10SM
04:56
Overcast
41°F / 5°C 39°F / 4°C 93% 29.95 in
(1014 mb)
Calm - 10SM
03:56
Overcast
Fog And Mist
41°F / 5°C 39°F / 4°C 93% 29.95 in
(1014 mb)
Calm - 4SM
03:17
Mostly Cloudy
Fog And Mist
39°F / 4°C 37°F / 3°C 93% 29.98 in
(1015 mb)
Calm - 3SM
03:06
Partly Cloudy
Fog And Mist
39°F / 4°C 39°F / 4°C 100% 29.98 in
(1015 mb)
Calm - 1 3/4SM
02:56
Partly Cloudy
43°F / 6°C 39°F / 4°C 87% 29.98 in
(1015 mb)
Calm - 10SM
02:53
Clear
Fog And Mist
43°F / 6°C 39°F / 4°C 87% 29.98 in
(1015 mb)
Calm - 3SM
02:51
Partly Cloudy
Fog And Mist
43°F / 6°C 39°F / 4°C 87% 29.98 in
(1015 mb)
Calm - 1 3/4SM
02:44
Partly Cloudy
Fog And Mist
41°F / 5°C 39°F / 4°C 93% 29.98 in
(1015 mb)
Calm - 2SM
01:56
Mostly Cloudy
43°F / 6°C 39°F / 4°C 87% 29.95 in
(1014 mb)
SE 3.5 mph
(SE 6 kph)
- 10SM
00:56
Overcast
45°F / 7°C 43°F / 6°C 93% 29.98 in
(1015 mb)
S 4.6 mph
(S 7 kph)
- 10SM
Time Weather Temperature Dewpoint Humidity Pressure Winds Precip Visibility


Weather for websites

WeatherForYou.com, LLC is not responsible for any damages or problems caused by this service. Current weather conditions are obtained from the closest station including government and personal stations which may have varying degrees of accuracy. Weather forecasts are derived from the NOAA NDFD. Like all things, this site belongs to Jesus Christ... He just trusts me to maintain it. If you have any questions or comments email webmaster@weatherforyou.com

Copyright © 2014, WeatherForYou.com LLC. All rights reserved.